Voltar ao catálogo

STARLINK-3507

AtivoComunicaçõesVLEO
NORAD 51753·PAYLOAD·🇺🇸 United States

Lançado Feb 21, 2022 de Cape Canaveral Space Force Station

Loading…

Próximas Passagens (próximas 24 horas)

TLE

AtualizadoSource: CelesTrak SupGP

Época: Sep 14, 2026, 21:52 UTC

1 51753C 22016AR  26257.91159722 -.00030981  00000+0 -94022-3 0  2579
2 51753  53.1571 165.9818 0001292  93.7762 269.7566 15.33560030    19

Acompanhe STARLINK-3507 em tempo real com AllMySat

Download on the App Store